User: anonymous   Login
Location: Unspecified
(35.6961°N, 0.0000°E)
Time: 00:36:32
(UTC+00:00)
Language:

Transit 2A Rocket - Orbit

View from above orbital plane
View from above orbital plane
View from above satellite
View from above satellite

Ground track
Ground track

The orbit data is extracted from the following two-line orbital elements,

1    47U 60007C   19141.52727844 -.00000055  00000-0  13067-4 0  9991
2    47  66.6641 125.5779 0233968 231.9415 126.0376 14.42035138 78465
Epoch (UTC): 21 May 2019 12:39:16
Eccentricity: 0.0233968
inclination: 66.6641°
perigee height: 585 km
apogee height: 918 km
right ascension of ascending node: 125.5779°
argument of perigee: 231.9415°
revolutions per day: 14.42035138
mean anomaly at epoch: 126.0376°
orbit number at epoch: 7846

The dashed part of the orbit path shows where the satellite is in the earth's shadow,  

DLR